Weather History for Elmendorf AFB, AK

Change the Weather History Date:

Thursday, May 23, 2013

  Actual Average Record
Temperature  
Mean Temperature 49 °F -  
Max Temperature 56 °F 55 °F 78 °F (2006)
Min Temperature 42 °F 41 °F 31 °F (1964)
Degree Days  
Heating Degree Days 16    
Moisture  
Dew Point 42 °F    
Average Humidity 84    
Maximum Humidity 100    
Minimum Humidity 53    
Precipitation  
Precipitation 0.01 in - - ()
Sea Level Pressure  
Sea Level Pressure 30.14 in    
Wind  
Wind Speed 2 mph (NW)    
Max Wind Speed 12 mph    
Max Gust Speed -    
Visibility 10 miles    
Events Rain    
Averages and records for this station are not official NWS values.
T = Trace of Precipitation, MM = Missing Value Source: NWS Daily Summary

Daily Weather History Graph

Daily Weather History Graph

Search for Another Location

Airport:

Trip Planner

Search our weather history database for the weather conditions in past years. The results will help you decide how hot, cold, wet, or windy it might be!

Date:

Astronomy

May. 23, 2013 Rise Set
Actual Time 4:51 AM AKDT 11:01 PM AKDT
Civil Twilight 3:28 AM AKDT 12:27 AM AKDT
Nautical Twilight Sun does not rise Sun does not rise
Astronomical Twilight Sun does not rise Sun does not rise
Moon 9:23 PM AKDT (5/23) 4:20 AM AKDT (5/23)
Length of Visible Light 20h 58m
Length of Day
18h 10m
Waxing Gibbous, 97% of the Moon is Illuminated
May 23
Waxing Gibbous
May 24
Full
May 31
Last Quarter
Jun 8
New
Jun 16
First Quarter

Hourly Weather History & Observations

Time (AKDT) Temp. Windchill Dew Point Humidity Pressure Visibility Wind Dir Wind Speed Gust Speed Precip Events Conditions
12:34 AM 42.8 °F - 41.0 °F 93% 30.16 in 10.0 mi Calm Calm - N/A   Overcast
12:55 AM 42.8 °F - 41.5 °F 95% 30.16 in 10.0 mi Calm Calm - 0.00 in Rain Light Rain
1:46 AM 44.6 °F 43.1 °F 42.8 °F 93% 30.16 in 10.0 mi SW 3.5 mph - N/A   Overcast
1:55 AM 43.9 °F - 43.2 °F 97% 30.16 in 10.0 mi Calm Calm - 0.00 in   Overcast
2:29 AM 44.6 °F - 42.8 °F 93% 30.16 in 10.0 mi Calm Calm - N/A   Overcast
2:55 AM 43.9 °F - 42.8 °F 96% 30.16 in 10.0 mi Calm Calm - 0.00 in   Light Drizzle
3:55 AM 43.2 °F - 43.0 °F 99% 30.16 in 10.0 mi Calm Calm - 0.00 in   Light Drizzle
4:19 AM 42.8 °F - 42.8 °F 100% 30.16 in 10.0 mi Calm Calm - N/A   Overcast
4:43 AM 42.8 °F - 42.8 °F 100% 30.16 in 10.0 mi Calm Calm - N/A   Overcast
4:55 AM 43.2 °F - 43.0 °F 99% 30.16 in 10.0 mi Calm Calm - 0.01 in   Overcast
5:19 AM 42.8 °F - 42.8 °F 100% 30.16 in 10.0 mi Calm Calm - N/A   Overcast
5:45 AM 42.8 °F - 42.8 °F 100% 30.16 in 10.0 mi Calm Calm - N/A   Light Drizzle
5:55 AM 43.0 °F - 42.8 °F 99% 30.16 in 10.0 mi Calm Calm - 0.00 in   Light Drizzle
5:56 AM 42.8 °F - 42.8 °F 100% 30.18 in 10.0 mi Calm Calm - N/A Rain Light Rain
6:00 AM 42.8 °F - 42.8 °F 100% 30.16 in 10.0 mi Calm Calm - N/A   Light Drizzle
6:05 AM 42.8 °F - 42.8 °F 100% 30.16 in 10.0 mi Calm Calm - N/A   Overcast
6:08 AM 42.8 °F - 42.8 °F 100% 30.16 in 10.0 mi Calm Calm - N/A   Overcast
6:55 AM 43.9 °F - 43.5 °F 99% 30.16 in 10.0 mi Calm Calm - 0.00 in   Overcast
7:34 AM 42.8 °F - 42.8 °F 100% 30.15 in 10.0 mi Calm Calm - N/A   Partly Cloudy
7:55 AM 44.8 °F 43.3 °F 44.4 °F 99% 30.16 in 10.0 mi ENE 3.5 mph - N/A   Mostly Cloudy
7:57 AM 44.6 °F - 44.6 °F 100% 30.18 in 10.0 mi Calm Calm - N/A   Mostly Cloudy
8:55 AM 47.3 °F - 44.2 °F 89% 30.15 in 10.0 mi NE 3.5 mph - N/A   Overcast
9:55 AM 48.4 °F - 44.1 °F 85% 30.15 in 10.0 mi North 5.8 mph - N/A   Overcast
10:55 AM 51.6 °F - 41.7 °F 69% 30.15 in 10.0 mi Calm Calm - N/A   Partly Cloudy
11:55 AM 51.4 °F - 38.8 °F 62% 30.14 in 10.0 mi Variable 3.5 mph - N/A   Clear
12:55 PM 51.8 °F - 41.5 °F 68% 30.14 in 10.0 mi NW 11.5 mph - N/A   Overcast
1:55 PM 53.8 °F - 40.5 °F 61% 30.14 in 10.0 mi NW 5.8 mph - N/A   Mostly Cloudy
2:55 PM 52.9 °F - 41.5 °F 65% 30.13 in 10.0 mi WNW 10.4 mph - N/A   Overcast
3:55 PM 54.5 °F - 41.5 °F 62% 30.12 in 10.0 mi WNW 5.8 mph - N/A   Overcast
4:55 PM 55.4 °F - 41.4 °F 59% 30.12 in 10.0 mi WNW 11.5 mph - N/A   Overcast
5:55 PM 56.8 °F - 39.9 °F 53% 30.11 in 10.0 mi WNW 8.1 mph - N/A   Scattered Clouds
6:55 PM 53.8 °F - 39.0 °F 57% 30.11 in 10.0 mi WNW 8.1 mph - N/A   Overcast
7:55 PM 54.0 °F - 38.8 °F 57% 30.10 in 10.0 mi WNW 8.1 mph - N/A   Overcast
8:55 PM 53.2 °F - 38.7 °F 58% 30.10 in 10.0 mi NW 4.6 mph - N/A   Overcast
9:55 PM 50.5 °F - 38.1 °F 62% 30.09 in 10.0 mi Calm Calm - N/A   Mostly Cloudy
10:55 PM 48.9 °F - 37.4 °F 64% 30.10 in 10.0 mi Calm Calm - N/A   Clear
11:55 PM 46.9 °F - 36.1 °F 66% 30.09 in 10.0 mi NW 3.5 mph - N/A   Clear